Weather in Vorokhta

Ukraine / Ivano-Frankovsk District     48°17′00″N   24°34′01″E
temp.,
°C
wind,
m/s
gust,
m/s
humid.,
%
clouds,
%
prec.,
mm/h
press.,
hPa
HPBL,
m
20 april, tue
tue2000:00+2nne1297100 0.9 1014262
03:00+2ne1198100 1.5 1013322
06:00+2nne1299100 0.6 1012214
09:00+1ne12100100 4.8 1013136
12:00+2ene1293100 0.6 1013452
15:00+7ene117155 0.9 10111052
18:00+6ne1275100 1.4 1011683
21:000w119881 2.4 101410
21 april, wed
wed2100:00−1sw1199100 0.1 101532
03:000sw2298100 0.1 1015110
06:00+1sw229683 0.0 1015117
09:00+4wsw238344 0.0 1015603
12:00+7wsw347056 0.3 10141221
15:00+7sw34698 1.0 10141198
18:00+7wsw35618 0.1 10141209
21:00+2sw229483 0.1 101736
22 april, thu
thu2200:00+4sw259091 0.0 1017226
03:00+3sw2595100 0.1 1016500
06:00+4sw31096100 0.2 1016883
09:00+5sw41289100 0.2 1016922
12:00+7sw41174100 0.1 10161178
15:00+8sw61168100 0.4 10151472
18:00+8sw5127597 0.5 10141462
21:00+5sw2691100 0.9 1015649
23 april, fri
fri2300:00+4ssw1797100 6.6 1016613
03:00+1e11100100 12.1 1017111
06:00−1ne1298100 4.6 1019180
09:00−1ne1197100 5.3 1020283
12:00+2wnw138698 2.6 1020580
15:00+4w5774100 4.1 10191623
18:00+3wsw577564 0.6 10191219
21:00−2sw229998 0.8 102241
24 april, sat
sat2400:000sw259898 1.2 1021305
03:00−1wnw129697 3.8 1022178
06:00−8wsw119844 0.1 102629
09:00−1wsw228156 0.1 1024686
12:00+2wsw246812 0.0 10231342
15:00+4wsw356135 0.0 10211497
18:00+4sw236379 0.0 10211192
21:00−4sw219494 0.0 102413